Weather History for Monroe, MI

Change the Weather History Date:

Saturday, October 4, 2014

  Actual Average Record
Temperature  
Mean Temperature 46 °F -  
Max Temperature 51 °F 68 °F 91 °F (1951)
Min Temperature 41 °F 47 °F 32 °F (1935)
Degree Days  
Heating Degree Days 19    
Moisture  
Dew Point 37 °F    
Average Humidity 74    
Maximum Humidity 93    
Minimum Humidity 50    
Precipitation  
Precipitation 0.00 in - - ()
Sea Level Pressure  
Sea Level Pressure 29.66 in    
Wind  
Wind Speed 13 mph (WSW)    
Max Wind Speed 22 mph    
Max Gust Speed 30 mph    
Visibility 10 miles    
Events Rain    
Averages and records for this station are not official NWS values.
T = Trace of Precipitation, MM = Missing Value Source: NWS Daily Summary

Daily Weather History Graph

Daily Weather History Graph

Search for Another Location

Airport:

Trip Planner

Search our weather history database for the weather conditions in past years. The results will help you decide how hot, cold, wet, or windy it might be!

Date:

Astronomy

Oct. 04, 2014 Rise Set
Actual Time 7:33 AM EDT 7:10 PM EDT
Civil Twilight 7:06 AM EDT 7:38 PM EDT
Nautical Twilight 6:33 AM EDT 8:10 PM EDT
Astronomical Twilight 6:01 AM EDT 8:42 PM EDT
Moon 4:49 PM EDT (10/4) 2:56 AM EDT (10/4)
Length of Visible Light 12h 31m
Length of Day
11h 36m
Waxing Gibbous, 81% of the Moon is Illuminated
Oct 4
Waxing Gibbous
Oct 8
Full
Oct 15
Last Quarter
Oct 23
New
Oct 30
First Quarter

Hourly Weather History & Observations

Time (EDT) Temp. Windchill Dew Point Humidity Pressure Visibility Wind Dir Wind Speed Gust Speed Precip Events Conditions
12:10 AM 51.8 °F - 44.6 °F 76% 29.64 in 10.0 mi West 9.2 mph 18.4 mph N/A   Mostly Cloudy
12:30 AM 51.8 °F - 44.6 °F 76% 29.63 in 10.0 mi West 11.5 mph 16.1 mph N/A   Mostly Cloudy
12:50 AM 48.2 °F - 44.6 °F 87% 29.63 in 10.0 mi West 15.0 mph 21.9 mph N/A Rain Light Rain
1:10 AM 48.2 °F - 46.4 °F 93% 29.63 in 10.0 mi WSW 11.5 mph 16.1 mph N/A Rain Light Rain
1:30 AM 48.2 °F - 46.4 °F 93% 29.64 in 10.0 mi WSW 11.5 mph 16.1 mph N/A Rain Rain
1:50 AM 48.2 °F - 44.6 °F 87% 29.64 in 10.0 mi WSW 17.3 mph 21.9 mph N/A Rain Light Rain
2:11 AM 46.4 °F 40.7 °F 44.6 °F 93% 29.64 in 10.0 mi WSW 12.7 mph 18.4 mph N/A Rain Light Rain
2:31 AM 46.4 °F 41.9 °F 44.6 °F 93% 29.64 in 10.0 mi WSW 9.2 mph - N/A   Overcast
2:51 AM 46.4 °F 40.7 °F 44.6 °F 93% 29.64 in 10.0 mi WSW 12.7 mph 20.7 mph N/A   Overcast
3:11 AM 46.4 °F 40.7 °F 44.6 °F 93% 29.64 in 10.0 mi West 12.7 mph 17.3 mph N/A   Drizzle
3:31 AM 46.4 °F 42.4 °F 42.8 °F 87% 29.64 in 7.0 mi WSW 8.1 mph - N/A   Overcast
3:51 AM 46.4 °F 42.4 °F 44.6 °F 93% 29.64 in 7.0 mi WSW 8.1 mph - N/A Rain Rain
4:11 AM 46.4 °F 41.5 °F 42.8 °F 87% 29.64 in 10.0 mi WSW 10.4 mph - N/A   Overcast
4:31 AM 46.4 °F 41.9 °F 42.8 °F 87% 29.64 in 10.0 mi West 9.2 mph - N/A Rain Light Rain
4:51 AM 46.4 °F 41.1 °F 42.8 °F 87% 29.64 in 10.0 mi West 11.5 mph - N/A   Light Drizzle
5:32 AM 44.6 °F 39.7 °F 42.8 °F 93% 29.65 in 10.0 mi West 9.2 mph - N/A Rain Rain
5:52 AM 44.6 °F 39.2 °F 42.8 °F 93% 29.64 in 10.0 mi WSW 10.4 mph - N/A Rain Rain
6:12 AM 44.6 °F 40.2 °F 41.0 °F 87% 29.65 in 10.0 mi WSW 8.1 mph - N/A Rain Rain
6:32 AM 44.6 °F 40.2 °F 41.0 °F 87% 29.64 in 10.0 mi WSW 8.1 mph - N/A Rain Light Rain
6:52 AM 44.6 °F 38.4 °F 39.2 °F 81% 29.64 in 10.0 mi WSW 12.7 mph 16.1 mph N/A   Mostly Cloudy
7:12 AM 42.8 °F 36.6 °F 39.2 °F 87% 29.65 in 10.0 mi WSW 11.5 mph 17.3 mph N/A   Mostly Cloudy
7:32 AM 42.8 °F 35.8 °F 37.4 °F 81% 29.65 in 10.0 mi WSW 13.8 mph 17.3 mph N/A   Mostly Cloudy
7:52 AM 42.8 °F 37.5 °F 35.6 °F 76% 29.66 in 10.0 mi WSW 9.2 mph - N/A   Scattered Clouds
8:12 AM 42.8 °F 36.2 °F 35.6 °F 76% 29.66 in 10.0 mi SW 12.7 mph 17.3 mph N/A   Mostly Cloudy
8:32 AM 42.8 °F 35.4 °F 35.6 °F 76% 29.66 in 10.0 mi SW 15.0 mph 20.7 mph N/A   Overcast
8:53 AM 42.8 °F 36.6 °F 35.6 °F 76% 29.66 in 10.0 mi SW 11.5 mph 16.1 mph N/A   Overcast
9:13 AM 42.8 °F 36.2 °F 35.6 °F 76% 29.66 in 10.0 mi WSW 12.7 mph 20.7 mph N/A   Overcast
9:33 AM 42.8 °F 35.4 °F 33.8 °F 70% 29.65 in 10.0 mi SW 15.0 mph 24.2 mph N/A   Overcast
9:53 AM 42.8 °F 35.1 °F 33.8 °F 70% 29.65 in 10.0 mi SW 16.1 mph 20.7 mph N/A   Overcast
10:13 AM 42.8 °F 35.4 °F 33.8 °F 70% 29.65 in 10.0 mi SW 15.0 mph 24.2 mph N/A   Overcast
10:33 AM 42.8 °F 35.4 °F 33.8 °F 70% 29.65 in 10.0 mi WSW 15.0 mph 21.9 mph N/A   Light Drizzle
10:53 AM 44.6 °F 37.4 °F 33.8 °F 66% 29.66 in 10.0 mi SW 16.1 mph - N/A   Overcast
11:13 AM 44.6 °F 37.8 °F 33.8 °F 66% 29.66 in 10.0 mi WSW 15.0 mph 21.9 mph N/A   Mostly Cloudy
11:33 AM 46.4 °F 38.7 °F 32.0 °F 57% 29.66 in 10.0 mi WSW 20.7 mph 25.3 mph N/A   Mostly Cloudy
11:53 AM 46.4 °F 39.5 °F 32.0 °F 57% 29.66 in 10.0 mi WSW 17.3 mph 24.2 mph N/A   Scattered Clouds
12:14 PM 46.4 °F 40.1 °F 32.0 °F 57% 29.66 in 10.0 mi WSW 15.0 mph 24.2 mph N/A   Scattered Clouds
12:34 PM 48.2 °F - 30.2 °F 50% 29.66 in 10.0 mi West 18.4 mph 29.9 mph N/A   Scattered Clouds
12:54 PM 48.2 °F - 32.0 °F 54% 29.66 in 10.0 mi SW 16.1 mph 25.3 mph N/A   Mostly Cloudy
1:14 PM 48.2 °F - 32.0 °F 54% 29.66 in 10.0 mi WSW 17.3 mph 23.0 mph N/A   Mostly Cloudy
1:34 PM 46.4 °F 39.5 °F 32.0 °F 57% 29.66 in 10.0 mi WSW 17.3 mph 23.0 mph N/A   Mostly Cloudy
1:54 PM 46.4 °F 40.1 °F 30.2 °F 53% 29.66 in 10.0 mi WSW 15.0 mph 24.2 mph N/A   Overcast
2:14 PM 46.4 °F 40.1 °F 30.2 °F 53% 29.65 in 10.0 mi SW 15.0 mph 20.7 mph N/A   Mostly Cloudy
2:34 PM 46.4 °F 40.4 °F 32.0 °F 57% 29.65 in 10.0 mi SW 13.8 mph 20.7 mph N/A   Mostly Cloudy
2:54 PM 46.4 °F 40.4 °F 32.0 °F 57% 29.66 in 10.0 mi SW 13.8 mph 21.9 mph N/A   Mostly Cloudy
3:14 PM 46.4 °F 39.8 °F 30.2 °F 53% 29.66 in 10.0 mi WSW 16.1 mph 21.9 mph N/A   Overcast
3:35 PM 46.4 °F 40.7 °F 33.8 °F 62% 29.67 in 10.0 mi SW 12.7 mph - N/A   Mostly Cloudy
3:55 PM 46.4 °F 40.4 °F 33.8 °F 62% 29.66 in 10.0 mi SW 13.8 mph 19.6 mph N/A Rain Rain
4:15 PM 46.4 °F 40.7 °F 33.8 °F 62% 29.66 in 10.0 mi WSW 12.7 mph 17.3 mph N/A   Scattered Clouds
4:30 PM 46.4 °F 39.0 °F 32.0 °F 57% 29.66 in 10.0 mi WSW 19.6 mph 26.5 mph N/A   Mostly Cloudy
4:50 PM 48.2 °F - 33.8 °F 58% 29.66 in 10.0 mi SW 21.9 mph 28.8 mph N/A   Overcast
5:10 PM 48.2 °F - 32.0 °F 54% 29.67 in 10.0 mi WSW 20.7 mph 28.8 mph N/A   Mostly Cloudy
5:30 PM 46.4 °F 38.7 °F 32.0 °F 57% 29.68 in 10.0 mi WSW 20.7 mph 27.6 mph N/A   Scattered Clouds
5:50 PM 46.4 °F 39.5 °F 32.0 °F 57% 29.68 in 10.0 mi SW 17.3 mph 25.3 mph N/A   Scattered Clouds
6:10 PM 44.6 °F 36.9 °F 32.0 °F 61% 29.69 in 10.0 mi WSW 18.4 mph 24.2 mph N/A   Clear
6:30 PM 44.6 °F 37.8 °F 32.0 °F 61% 29.70 in 10.0 mi WSW 15.0 mph 23.0 mph N/A   Scattered Clouds
6:50 PM 42.8 °F 38.6 °F 33.8 °F 70% 29.70 in 10.0 mi WSW 6.9 mph 18.4 mph N/A   Scattered Clouds
7:11 PM 42.8 °F 37.5 °F 33.8 °F 70% 29.70 in 10.0 mi SW 9.2 mph 16.1 mph N/A   Scattered Clouds
7:31 PM 42.8 °F 37.0 °F 33.8 °F 70% 29.70 in 10.0 mi SW 10.4 mph - N/A   Mostly Cloudy
7:51 PM 42.8 °F 36.2 °F 33.8 °F 70% 29.70 in 10.0 mi SW 12.7 mph 21.9 mph N/A   Overcast
8:11 PM 42.8 °F 35.8 °F 35.6 °F 76% 29.70 in 10.0 mi SW 13.8 mph - N/A   Overcast
8:31 PM 42.8 °F 35.8 °F 35.6 °F 76% 29.70 in 10.0 mi SW 13.8 mph 18.4 mph N/A   Light Drizzle
8:51 PM 41.0 °F 33.5 °F 37.4 °F 87% 29.71 in 10.0 mi SW 13.8 mph - N/A   Drizzle
9:11 PM 41.0 °F 33.1 °F 37.4 °F 87% 29.71 in 10.0 mi SW 15.0 mph - N/A Rain Rain
9:31 PM 41.0 °F 34.3 °F 37.4 °F 87% 29.70 in 10.0 mi SW 11.5 mph - N/A   Light Drizzle
9:51 PM 41.0 °F 33.9 °F 37.4 °F 87% 29.70 in 10.0 mi SW 12.7 mph 17.3 mph N/A   Light Drizzle
10:11 PM 42.8 °F 36.6 °F 39.2 °F 87% 29.70 in 10.0 mi SW 11.5 mph 18.4 mph N/A   Overcast
10:31 PM 42.8 °F 36.6 °F 39.2 °F 87% 29.70 in 7.0 mi WSW 11.5 mph 19.6 mph N/A   Drizzle
10:52 PM 42.8 °F 36.2 °F 39.2 °F 87% 29.71 in 10.0 mi WSW 12.7 mph 24.2 mph N/A Rain Rain
11:12 PM 42.8 °F 35.8 °F 39.2 °F 87% 29.71 in 10.0 mi WSW 13.8 mph 18.4 mph N/A Rain Light Rain
11:32 PM 42.8 °F 37.0 °F 39.2 °F 87% 29.71 in 7.0 mi WSW 10.4 mph - N/A Rain Light Rain
11:52 PM 42.8 °F 37.0 °F 39.2 °F 87% 29.71 in 10.0 mi WSW 10.4 mph 16.1 mph N/A   Light Drizzle